Location: Newark
(25.4800°N, 85.7200°E)
Time: 05:16:34
(UTC+00:00)

Transit 4A - Pass Details

Date: 29 August 2019
Orbit: 865 x 980 km, 66.8° (Epoch: 17 September)

Event Time Altitude Azimuth Distance (km) Brightness Sun altitude
Rises 19:20:07 0° 352° (N) 3,585 11.4 -52.1°
Enters shadow 19:21:37 - 358° (N) 3,096 11.1 -52.0°
Reaches altitude 10° 19:23:12 10° 6° (N) 2,618 - -51.8°
Maximum altitude 19:28:00 24° 59° (ENE) 1,780 - -51.3°
Drops below altitude 10° 19:32:41 10° 112° (ESE) 2,549 - -50.8°
Sets 19:35:37 0° 125° (SE) 3,470 - -50.5°
